Location: Poughquag
(41.6090°N, 73.6820°W)
Time: 08:10:51
(UTC-05:00)

STRAND 1 - Pass Details

Date: 28 November 2023
Orbit: 766 x 778 km, 98.4° (Epoch: 24 February)

Event Time Altitude Azimuth Distance (km) Brightness Sun altitude
Exits shadow 18:49:09 42° 0° (N) 1,094 ? -26.2°
Maximum altitude 18:50:54 74° 286° (WNW) 798 ? -26.5°
Drops below altitude 10° 18:55:57 10° 202° (SSW) 2,298 ? -27.4°
Sets 18:58:15 0° 200° (SSW) 3,221 ? -27.9°
